Погода в Капо-Ватикано

Италия     38°37′20″N   15°50′04″E
темп.,
°C
ветер,
м/с
пор.,
м/с
влажн.,
%
обл.,
%
осадки,
мм/ч
давл.,
гПа
погр.,
м
29 июня, ср
ср2923:00+27в11590 0.0 101412
02:00+27сз22650 0.0 101420
05:00+26юв11715 0.0 101336
08:00+26в017496 0.0 101447
11:00+26зсз22770 0.0 1014270
14:00+26сз33761 0.0 1013353
17:00+27зсз22750 0.0 1012351
20:00+26зсз22790 0.0 1012337
30 июня, чт
чт3023:00+25зюз01840 0.0 101399
02:00+25вюв118619 0.0 1013221
05:00+25всв338348 0.1 1012361
08:00+25ююз11799 0.1 1013302
11:00+25ссз11790 0.0 1013212
14:00+26ссз44693 0.0 1012267
17:00+27с45670 0.0 1012282
20:00+26с33740 0.0 1012162
1 июля, пт
пт123:00+25всв227228 0.0 1014143
02:00+25св016715 0.0 1014124
05:00+25ссв23610 0.0 1014173
08:00+25в33595 0.0 1015167
11:00+26вюв12525 0.0 1014104
14:00+27с125883 0.0 101382
17:00+28с456352 0.0 1013105
20:00+27ссз33734 0.0 101540
2 июля, сб
сб223:00+27юв22740 0.0 101519
02:00+26всв22650 0.0 101438
05:00+26св11630 0.0 101522
08:00+26в11620 0.0 101648
11:00+26юз11650 0.0 101685
14:00+27зсз23620 0.0 1016330
17:00+28сз33640 0.0 1015515
20:00+27сз11730 0.0 101643
3 июля, вс
вс323:00+26юв11760 0.0 101727
02:00+25вюв11740 0.0 1015115
05:00+24вюв22770 0.0 1015139
08:00+25вюв11730 0.0 1016126
11:00+26з12710 0.0 1016182
14:00+27сз33690 0.0 1016319
17:00+27ссз23690 0.0 1015333
20:00+27сз11760 0.0 101561